Location: St. Louis
(38.6270°N, 90.1994°W)
Time: 11:41:57
(UTC-06:00)

S-56A Canister/Altair - Pass Details

Date: 30 November 2021
Orbit: 634 x 2499 km, 38.9° (Epoch: 26 January)

Event Time Altitude Azimuth Distance (km) Brightness Sun altitude
Rises 22:30:25 0° 207° (SSW) 5,533 - -66.1°
Reaches altitude 10° 22:35:16 10° 196° (SSW) 4,219 - -66.8°
Maximum altitude 22:43:17 25° 148° (SSE) 2,645 - -68.0°
Drops below altitude 10° 22:49:18 10° 97° (E) 3,091 - -68.8°
Sets 22:52:12 0° 83° (E) 3,801 - -69.2°
